This is the latest recevied weather packets stored in our database for station/object K1BWE-1. If no packets are shown the sender has not sent any weather packets the latest 10 day(s).
| Time | Temp. | Humidity | Pressure | Rain* | Wind** | Luminosity | Snow |
|---|---|---|---|---|---|---|---|
| 1777247242 | 23.89° C | 23% | 1011.9 hPa | 0 mm | - | 176 W/m² | - |
| 1777246940 | 23.33° C | 23% | 1012.1 hPa | 0 mm | - | 310 W/m² | - |
| 1777246636 | 23.33° C | 23% | 1011.9 hPa | 0 mm | - | 321 W/m² | - |
| 1777246332 | 23.33° C | 24% | 1011.8 hPa | 0 mm | - | 322 W/m² | - |
| 1777246030 | 23.33° C | 23% | 1011.7 hPa | 0 mm | - | 353 W/m² | - |
| 1777245728 | 23.33° C | 24% | 1011.6 hPa | 0 mm | - | 386 W/m² | - |
| 1777245425 | 23.33° C | 24% | 1011.8 hPa | 0 mm | - | 406 W/m² | - |
| 1777245124 | 23.33° C | 24% | 1011.9 hPa | 0 mm | - | 411 W/m² | - |
| 1777244822 | 23.33° C | 24% | 1011.6 hPa | 0 mm | - | 421 W/m² | - |
| 1777244517 | 23.33° C | 25% | 1011.7 hPa | 0 mm | - | 437 W/m² | - |
| 1777244213 | 23.33° C | 25% | 1011.6 hPa | 0 mm | - | 481 W/m² | - |
| 1777243913 | 23.33° C | 25% | 1012 hPa | 0 mm | - | 476 W/m² | - |
| 1777243609 | 23.89° C | 24% | 1011.5 hPa | 0 mm | - | 501 W/m² | - |
| 1777243304 | 22.78° C | 24% | 1011.6 hPa | 0 mm | - | 525 W/m² | - |
| 1777243000 | 23.33° C | 24% | 1011.6 hPa | 0 mm | - | 552 W/m² | - |
| 1777242698 | 23.33° C | 29% | 1011.6 hPa | 0 mm | - | 560 W/m² | - |
| 1777242393 | 23.33° C | 28% | 1011.7 hPa | 0 mm | - | 502 W/m² | - |
| 1777242091 | 23.33° C | 26% | 1011.7 hPa | 0 mm | - | 532 W/m² | - |
| 1777241788 | 23.33° C | 28% | 1011.8 hPa | 0 mm | - | 534 W/m² | - |
| 1777241486 | 23.33° C | 27% | 1011.6 hPa | 0 mm | - | 261 W/m² | - |
| 1777241183 | 23.33° C | 28% | 1011.8 hPa | 0 mm | - | 605 W/m² | - |
| 1777240881 | 23.33° C | 29% | 1011.8 hPa | 0 mm | - | 647 W/m² | - |
| 1777240578 | 22.78° C | 28% | 1011.7 hPa | 0 mm | - | 622 W/m² | - |
| 1777240275 | 23.33° C | 28% | 1011.8 hPa | 0 mm | - | 618 W/m² | - |
| 1777239973 | 23.33° C | 28% | 1012 hPa | 0 mm | - | 301 W/m² | - |
* Rain latest hour (hover to see other rain measurements)
** Current wind speed in m/s (hover to see current wind gust speed)